Location: Earls Croome
(52.0667°N, 2.2000°W)
Time: 21:34:27
(UTC+00:00)

Cosmos 2058 - Pass Details

Date: 17 November 2019
Orbit: 561 x 585 km, 82.5° (Epoch: 08 December)

Event Time Altitude Azimuth Distance (km) Brightness Sun altitude
Exits shadow 05:41:48 32° 268° (W) 1,015 3.6 -16.6°
Maximum altitude 05:42:30 34° 289° (WNW) 971 3.5 -16.5°
Drops below altitude 10° 05:46:22 10° 355° (N) 1,911 5.4 -15.9°
Sets 05:48:43 0° 5° (N) 2,812 6.4 -15.6°
